Tracking 19242 objects as of 16-Aug-2018
HD Live streaming from Space Station
objects crossing your sky now

COSMOS 2219

Track COSMOS 2219 now!
10-day predictions
COSMOS 2219 is classified as:


NORAD ID: 22219
Int'l Code: 1992-076A
Perigee: 842.3 km
Apogee: 865.9 km
Inclination: 71.1 °
Period: 101.9 minutes
Semi major axis: 7225 km
RCS: 7.421 m2 (large)
Launch date: November 17, 1992
Source: Commonwealth of Independent States (former USSR) (CIS)
Launch site: TYURATAM MISSILE AND SPACE COMPLEX (TTMTR)
aabbcc
Your satellite tracking list
Your tracking list is empty




NASA's NSSDC Master Catalog

Two Line Element Set (TLE):
1 22219U 92076A   18226.91925952 +.00000187 +00000-0 +12372-3 0  9995
2 22219 071.0613 032.5916 0016366 102.6161 257.6792 14.13634096327772
Source of the keplerian elements: AFSPC